Location: Joplin
(37.0842°N, 94.5131°W)
Time: 07:17:48
(UTC-05:00)

Tiangong - Visible Passes

Search period start: 20 September 2021 00:00
Search period end: 30 September 2021 00:00
Orbit: 380 x 386 km, 41.5° (Epoch: 18 September)

Date Brightness Start Highest point End Pass type
(mag) Time Alt. Az. Time Alt. Az. Time Alt. Az.
23 Sep 3.4 06:27:05 10° SSW 06:29:28 20° SE 06:31:52 10° E visible
24 Sep 4.0 05:28:17 10° SSE 05:29:04 11° SE 05:29:51 10° SE visible
25 Sep 2.3 06:02:47 17° SSW 06:04:46 35° SSE 06:07:41 10° E visible
26 Sep 3.7 05:05:12 16° ESE 05:05:12 16° ESE 05:06:28 10° E visible
26 Sep 1.1 06:37:31 10° WSW 06:40:39 77° NNW 06:43:48 10° ENE visible
27 Sep 1.2 05:39:36 60° S 05:39:49 62° SSE 05:42:55 10° ENE visible
28 Sep 4.6 04:41:43 11° E 04:41:43 11° E 04:41:50 10° E visible
28 Sep 1.4 06:13:51 22° W 06:15:38 52° NNW 06:18:43 10° ENE visible
29 Sep 2.8 05:15:51 33° ENE 05:15:51 33° ENE 05:17:44 10° ENE visible
